Regional Weather Roundup
Issued by NWS

Home | Current Version | Previous Version | Graphics & Text | Print | Product List | Glossary On
Versions: 1 2 3 4 5 6 7 8 9 10 11 12 13 14 15 16 17 18 19 20 21 22 23 24 25 26 27 28 29 30 31 32 33 34 35 36 37 38 39 40 41 42 43 44 45 46 47 48 49 50
000
ASUS45 KBOU 011907
RWRCO

WEATHER ROUNDUP FOR COLORADO
NATIONAL WEATHER SERVICE DENVER/BOULDER CO
100 PM MDT MON JUN 01 2015

NOTE: "FAIR" INDICATES FEW OR NO CLOUDS BELOW 12000 FEET WITH NO
SIGNIFICANT WEATHER AND/OR OBSTRUCTIONS TO VISIBILITY.

COZ001>005-013-030-031-012000-
...NORTHWEST COLORADO...

CITY           SKY/WX    TMP DP  RH WIND       PRES   REMARKS
CRAIG          MOSUNNY   81  44  27 SW16      30.08F
HAYDEN         MOSUNNY   77  41  27 N6        30.12F
MEEKER         MOSUNNY   81  44  27 S21       30.11F
MOUNT WERNER   NOT AVBL
STEAMBOAT SPGS MOSUNNY   76  41  28 SW6       30.15F
WALDEN         PTSUNNY   72  32  23 SW10G18   30.24F
$$

COZ006>008-011-012000-
...WEST CENTRAL VALLEYS...

CITY           SKY/WX    TMP DP  RH WIND       PRES   REMARKS
GRAND JUNCTION SUNNY     86  37  17 CALM      29.99F
MONTROSE       PTSUNNY   83  37  19 W13       30.11F
EAGLE          MOSUNNY   86  45  23 W9        30.14F
RIFLE          MOSUNNY   80  43  26 W7        30.06F
DELTA          MOSUNNY   88  35  15 CALM      30.06F
NUCLA          MOSUNNY   82  28  14 SW13G24   30.17F
$$

COZ017>023-064>068-012000-
...SOUTHWEST COLORADO...

CITY           SKY/WX    TMP DP  RH WIND       PRES   REMARKS
DURANGO        PTSUNNY   75  38  26 CALM      30.23F
CORTEZ         MOSUNNY   85  36  17 S14G22    30.16F
PAGOSA SPRINGS MOSUNNY   73  33  22 S6        30.31F
TELLURIDE      PTSUNNY   69  31  24 SW14G22   30.38F THUNDER
WOLF CREEK PAS NOT AVBL
$$

COZ009-010-012-014-032>034-037-058>063-012000-
...CENTRAL COLORADO...

CITY           SKY/WX    TMP DP  RH WIND       PRES   REMARKS
ASPEN          MOSUNNY   75  36  24 SW13      30.23F
BUENA VISTA    MOSUNNY   72  28  19 W14       30.26F
COPPER MTN     MOSUNNY   54  32  43 S17       30.55F
BERTHOUD PASS  PTSUNNY   41  34  75 MISG      30.59F
COTTONWOOD PAS NOT AVBL
GUNNISON       MOSUNNY   70  36  28 S7        30.29F
KREMMLING      MOSUNNY   77  32  19 W9G21     30.21F
LEADVILLE      PTSUNNY   63  27  25 SW12G18   30.39F
MONARCH PASS   MOSUNNY   50  28  43 W21G26    30.66F
SALIDA         MOSUNNY   77  35  21 SW8G20    30.30F
SUNLIGHT       CLOUDY    55  36  47 CALM      30.48F THUNDER
WILKERSON PASS PTSUNNY   59  27  29 NW12      30.52F
$$

COZ069>075-012000-
...SAN LUIS VALLEY/SANGRE DE CRISTO MOUNTAINS...

CITY           SKY/WX    TMP DP  RH WIND       PRES   REMARKS
ALAMOSA        MOSUNNY   75  35  23 SW10      30.27F
LA VETA PASS   MOSUNNY  N/A N/A N/A MISG      30.45F
SAGUACHE       LGT RAIN  68  41  37 S3        30.31F
$$

COZ035-036-038>040-012000-
...NORTHERN COLORADO FRONT RANGE...

CITY           SKY/WX    TMP DP  RH WIND       PRES   REMARKS
DENVER INTL AP PTSUNNY   82  51  34 E7        30.07F
DMNS CITY PARK   N/A     84  40  21 E7        30.05F
AURORA         NOT AVBL
FRONT RANGE AP MOSUNNY   82  41  23 SW5       30.08F
ERIE MUNI ARPT MOSUNNY   82  45  27 SE8       30.04F
BOULDER MUN AP MOSUNNY   79  52  38 NE6       30.06F
CENTENNIAL     PTSUNNY   79  39  23 NW6       30.10F
BROOMFIELD     PTSUNNY   77  46  33 CALM      30.09F
FORT COLLINS   MOSUNNY   82  54  36 SE9       30.03F
LONGMONT       MOSUNNY   84  50  30 S7        30.06F
$$

COZ041-046-047-076>085-087-088-012000-
...PIKES PEAK/PALMER DIVIDE AND SOUTHERN FOOTHILLS...

CITY           SKY/WX    TMP DP  RH WIND       PRES   REMARKS
COLO. SPRINGS  MOSUNNY   76  42  29 S10       30.16S THUNDER
A. F. ACADEMY  NOT AVBL
ELLICOTT       MOSUNNY  N/A N/A N/A SE9       30.14F
FALCON         MOSUNNY   77  40  26 SE12      30.21F
FORT CARSON    NOT AVBL
LIMON          SUNNY     78  54  43 SE13      30.10F
MONUMENT HILL  HAZE      72  37  28 N5        30.20F THUNDER VSB 1
TRINIDAD       MOSUNNY   82  44  26 MISG      30.13F
$$

COZ042>045-048>051-090-091-012000-
...NORTHEAST COLORADO...

CITY           SKY/WX    TMP DP  RH WIND       PRES   REMARKS
GREELEY ARPT   MOSUNNY   82  54  36 S7        30.04F
AKRON          SUNNY     83  52  34 S10G21    30.04F
BURLINGTON     SUNNY     84  54  35 SE13G20   30.05F
WRAY           SUNNY     82  58  43 SE12G18   30.02F
STERLING       SUNNY     82  57  42 S10       30.00F
HOLYOKE        NOT AVBL
FORT MORGAN    SUNNY     81 -22   1 S7        30.04F
$$

COZ086-089-092>099-012000-
...SOUTHEAST COLORADO...

CITY           SKY/WX    TMP DP  RH WIND       PRES   REMARKS
PUEBLO         SUNNY     82  50  32 SW6       30.04F
LA JUNTA       SUNNY     84  54  35 SE6       30.04F
LAMAR          SUNNY     84  57  39 E8        30.01F
SPRINGFIELD      N/A     83  51  33 S9        30.06F
$$



USA.gov is the U.S. government's official web portal to all federal, state and local government web resources and services.